Location: Marsån
(66.4167°N, 22.2833°E)
Time: 11:29:17
(UTC+00:00)

Cosmos 1190 Rocket - Pass Details

Date: 24 February 2024
Orbit: 755 x 778 km, 74.1° (Epoch: 15 April)

Event Time Altitude Azimuth Distance (km) Brightness Sun altitude
Rises 17:29:19 0° 222° (SW) 3,220 7.8 -13.2°
Reaches altitude 10° 17:31:41 10° 223° (SW) 2,294 7.0 -13.4°
Maximum altitude 17:36:54 87° 312° (NW) 768 4.0 -13.9°
Drops below altitude 10° 17:42:08 10° 43° (NE) 2,297 6.1 -14.4°
Enters shadow 17:43:31 - 44° (NE) 2,833 6.6 -14.6°
